Regional Weather Roundup
Issued by NWS

Home | Current Version | Previous Version | Text Only | Print | Product List | Glossary Off
Versions: 1 2 3 4 5 6 7 8 9 10 11 12 13 14 15 16 17 18 19 20 21 22 23 24 25 26 27 28 29 30 31 32 33 34 35 36 37 38 39 40 41 42 43 44 45 46 47 48 49 50

000
ASUS43 KIND 211759
RWRIN

WEATHER ROUNDUP FOR INDIANA
NATIONAL WEATHER SERVICE INDIANAPOLIS IN
200 PM EDT SAT APR 21 2018

NOTE: "FAIR" INDICATES FEW OR NO CLOUDS BELOW 12,000 FEET WITH NO
SIGNIFICANT WEATHER AND/OR OBSTRUCTIONS TO VISIBILITY.

* - STATION DOES NOT REPORT WEATHER SUCH AS PRECIPITATION OR FOG.

+ - STATION NOT QUALITY CONTROLLED BY THE NATIONAL WEATHER SERVICE.
    USE DATA WITH CAUTION...ESPECIALLY DEWPOINT AND RELATIVE
    HUMIDITY OBSERVATIONS.

INZ001>003-010>013-019-020-211900-
NORTHWEST INDIANA

CITY           SKY/WX    TMP DP  RH WIND       PRES   REMARKS
GARY /AIRPORT/ CLOUDY    46  28  49 NE5       30.43F
KNOX *+        CLOUDY    54  30  40 SE5       30.42F
MONTICELLO +   CLOUDY    55  24  30 SE3       30.41F
6HR MIN TEMP:  40; 6HR MAX TEMP:  55;

RENSSELAER +   FAIR      55   7  14 E9        30.42F

$$

LMZ046-743>745-211900-
SOUTHERN LAKE MICHIGAN

STATION/POSITION TIME  TEMP    WIND        PRES    WAVE
                       AIR SEA DIR/SP/G            HT
                 (UTC) (F)     (DEG/KT/KT) (MB)    (FT)
BURNS HARBOR     1740   41      70/  7/ 10 1030.8F
MICHIGAN CITY    1730   41      40/  5/  5   N/A

$$

INZ004-005-014>016-021>024-211900-
NORTH CENTRAL INDIANA

CITY           SKY/WX    TMP DP  RH WIND       PRES   REMARKS
ELKHART        SUNNY     55  28  35 SW5       30.42F
GOSHEN         FAIR      55  28  35 SW7       30.42F
6HR MIN TEMP:  36; 6HR MAX TEMP:  55;

ROCHESTER +    FAIR      55  23  28 SE3       30.43F
SOUTH BEND     FAIR      53  28  38 VRB3      30.44F
6HR MIN TEMP:  35; 6HR MAX TEMP:  53;

WARSAW +       FAIR      54  28  37 SE3       30.43F

$$

INZ006>009-017-018-025>027-211900-
NORTHEAST INDIANA

CITY           SKY/WX    TMP DP  RH WIND       PRES   REMARKS
ANGOLA *+      FAIR      54  27  35 CALM      30.43F
FORT WAYNE     CLOUDY    54  26  34 VRB5      30.45F
6HR MIN TEMP:  36; 6HR MAX TEMP:  54;

KENDALLVILLE + FAIR      54  17  23 SE3       30.43F

$$

INZ028-029-035-036-043>045-051>053-211900-
WEST CENTRAL INDIANA

CITY           SKY/WX    TMP DP  RH WIND       PRES   REMARKS
GREENCASTLE +  FAIR      57  28  33 E7        30.37F
LAFAYETTE      FAIR      55  28  35 E10       30.40F
6HR MIN TEMP:  40; 6HR MAX TEMP:  55;

TERRE HAUTE    FAIR      61  29  29 CALM      30.36F
6HR MIN TEMP:  41; 6HR MAX TEMP:  61;


$$

INZ030>032-037>040-046>048-054>057-064-065-211900-
CENTRAL INDIANA

CITY           SKY/WX    TMP DP  RH WIND       PRES   REMARKS
ANDERSON       FAIR      55  18  22 E6        30.41F
COLUMBUS       PTSUNNY   63 N/A N/A SE8       30.38F
GREENWOOD *+   FAIR      56  25  30 E8        30.39F
6HR MIN TEMP:  42; 6HR MAX TEMP:  56;

INDIANAPOLIS   PTSUNNY   58  24  27 E10       30.38F
6HR MIN TEMP:  44; 6HR MAX TEMP:  58;

-EAGLE CREEK   FAIR      58  27  30 E10       30.38F
6HR MIN TEMP:  43; 6HR MAX TEMP:  58;

KOKOMO +       CLOUDY    56  23  27 E6        30.42F
6HR MIN TEMP:  38; 6HR MAX TEMP:  57;

MT COMFORT *+  FAIR      57  30  35 E8        30.40F
SHELBYVILLE    FAIR      59  19  21 NE9       30.38F
6HR MIN TEMP:  42; 6HR MAX TEMP:  60;

ZIONSVILLE +   FAIR      57  28  32 E7        30.40F

$$

INZ033-034-041-042-049-050-058-059-211900-
EAST CENTRAL INDIANA

CITY           SKY/WX    TMP DP  RH WIND       PRES   REMARKS
MUNCIE         FAIR      57  20  23 VRB5      30.41F
6HR MIN TEMP:  37; 6HR MAX TEMP:  58;

RICHMOND +     FAIR      55  23  28 E7        30.41F

$$

INZ060-061-067>069-081>083-085>088-211900-
SOUTHWEST INDIANA

CITY           SKY/WX    TMP DP  RH WIND       PRES   REMARKS
EVANSVILLE     FAIR      67  30  25 E10G17    30.30F
6HR MIN TEMP:  44; 6HR MAX TEMP:  68;

HUNTINGBURG +  FAIR      67  35  30 SE7       30.32F
6HR MIN TEMP:  43; 6HR MAX TEMP:  67;


$$

INZ062-063-066-070>080-084-089>092-211900-
SOUTH CENTRAL AND SOUTHEAST INDIANA

CITY           SKY/WX    TMP DP  RH WIND       PRES   REMARKS
BLOOMINGTON    FAIR      63  27  25 S8        30.35F
6HR MIN TEMP:  43; 6HR MAX TEMP:  63;

FRENCH LICK *+ FAIR      63  12  14 E3        30.33F
SEYMOUR +      FAIR      64  32  29 SE8       30.36F

$$





USA.gov is the U.S. government's official web portal to all federal, state and local government web resources and services.